| time (UTC) | temp C | wind direction | speed KPH | gust KPH | rain 1hr cm | rain 24hr cm | rain mn cm | humidity % | barometer mb |
| 20260504223034 | 14 | 189 | 0.0 | 3.2 | 0.05 | 0.05 | 0.05 | 84 | 1014.5 |
| 20260504221527 | 14 | 172 | 0.0 | 1.6 | 0.03 | 0.03 | 0.03 | 84 | 1014.5 |
| 20260504220025 | 14 | 160 | 0.0 | 1.6 | 0.00 | 0.00 | 0.00 | 83 | 1014.6 |
| 20260504214526 | 14 | 174 | 0.0 | 0.0 | 0.00 | 0.00 | 0.00 | 80 | 1014.6 |
| 20260504213052 | 15 | 159 | 0.0 | 0.0 | 0.00 | 0.00 | 0.00 | 81 | 1014.7 |
| 20260504211539 | 15 | 231 | 0.0 | 0.0 | 0.00 | 0.00 | 0.00 | 79 | 1014.8 |
| 20260504210041 | 15 | 323 | 0.0 | 0.0 | 0.00 | 0.00 | 0.00 | 76 | 1014.8 |
| 20260504204545 | 15 | 302 | 0.0 | 1.6 | 0.00 | 0.00 | 0.00 | 76 | 1014.5 |
| 20260504203157 | 15 | 209 | 0.0 | 0.0 | 0.00 | 0.00 | 0.00 | 75 | 1014.5 |
| 20260504201539 | 15 | 271 | 0.0 | 1.6 | 0.00 | 0.00 | 0.00 | 76 | 1014.6 |
| 20260504200039 | 15 | 278 | 0.0 | 3.2 | 0.00 | 0.00 | 0.00 | 76 | 1014.6 |
| 20260504194510 | 15 | 205 | 0.0 | 0.0 | 0.00 | 0.00 | 0.00 | 76 | 1014.8 |
| 20260504193053 | 15 | 309 | 0.0 | 0.0 | 0.00 | 0.00 | 0.00 | 78 | 1014.6 |
| 20260504191556 | 15 | 205 | 0.0 | 1.6 | 0.00 | 0.00 | 0.00 | 76 | 1014.8 |
| 20260504190049 | 15 | 246 | 0.0 | 0.0 | 0.00 | 0.00 | 0.00 | 74 | 1014.8 |
| 20260504184551 | 15 | 252 | 0.0 | 4.8 | 0.00 | 0.00 | 0.00 | 75 | 1014.9 |
| 20260504183049 | 15 | 236 | 0.0 | 8.0 | 0.00 | 0.00 | 0.00 | 74 | 1014.9 |
| 20260504181549 | 15 | 222 | 0.0 | 1.6 | 0.00 | 0.00 | 0.00 | 76 | 1015.0 |
| 20260504180049 | 15 | 297 | 0.0 | 6.4 | 0.00 | 0.00 | 0.00 | 77 | 1014.9 |
| 20260504174604 | 14 | 236 | 0.0 | 4.8 | 0.00 | 0.00 | 0.00 | 78 | 1014.7 |
| 20260504173103 | 14 | 251 | 0.0 | 1.6 | 0.00 | 0.00 | 0.00 | 77 | 1014.6 |
| 20260504171606 | 14 | 245 | 0.0 | 6.4 | 0.00 | 0.00 | 0.00 | 77 | 1014.6 |
| 20260504160111 | 13 | 217 | 0.0 | 4.8 | 0.00 | 0.00 | 0.00 | 81 | 1014.5 |
| 20260504120105 | 11 | 159 | 0.0 | 1.6 | 0.00 | 0.00 | 0.00 | 89 | 1013.5 |
| 20260504100112 | 11 | 232 | 0.0 | 0.0 | 0.00 | 0.00 | 0.00 | 88 | 1013.3 |
| 20260504081500 | 12 | 184 | 0.0 | 3.2 | 0.00 | 0.00 | 0.00 | 85 | 1013.5 |
| 20260504070115 | 12 | 201 | 0.0 | 0.0 | 0.00 | 0.00 | 0.00 | 84 | 1013.4 |
| 20260504044541 | 13 | 300 | 0.0 | 12.9 | 0.00 | 0.00 | 0.00 | 76 | 1012.6 |
| 20260504043030 | 14 | 272 | 0.0 | 8.0 | 0.00 | 0.00 | 0.00 | 76 | 1012.4 |
| 20260504041530 | 14 | 299 | 0.0 | 8.0 | 0.00 | 0.00 | 0.00 | 75 | 1012.4 |
| 20260504040036 | 15 | 275 | 1.6 | 8.0 | 0.00 | 0.00 | 0.00 | 74 | 1012.2 |
| 20260504034530 | 15 | 358 | 0.0 | 8.0 | 0.00 | 0.00 | 0.00 | 74 | 1012.1 |
| 20260504033030 | 15 | 337 | 0.0 | 9.7 | 0.00 | 0.00 | 0.00 | 72 | 1011.9 |
| 20260504031531 | 15 | 307 | 1.6 | 11.3 | 0.00 | 0.00 | 0.00 | 69 | 1011.7 |
| 20260504030029 | 16 | 334 | 1.6 | 14.5 | 0.00 | 0.00 | 0.00 | 66 | 1011.7 |
| 20260504024530 | 17 | 277 | 1.6 | 20.9 | 0.00 | 0.00 | 0.00 | 64 | 1011.4 |
| 20260504023103 | 17 | 226 | 4.8 | 17.7 | 0.00 | 0.00 | 0.00 | 61 | 1011.3 |
| 20260504021559 | 18 | 340 | 4.8 | 24.1 | 0.00 | 0.00 | 0.00 | 59 | 1011.2 |
| 20260504020114 | 18 | 323 | 4.8 | 16.1 | 0.00 | 0.00 | 0.00 | 57 | 1010.9 |
| 20260504014614 | 18 | 330 | 3.2 | 17.7 | 0.00 | 0.00 | 0.00 | 57 | 1010.9 |
| 20260504013114 | 20 | 338 | 3.2 | 12.9 | 0.00 | 0.00 | 0.00 | 55 | 1010.8 |
| 20260504011614 | 19 | 295 | 4.8 | 19.3 | 0.00 | 0.00 | 0.00 | 56 | 1010.7 |
| 20260504010114 | 20 | 300 | 6.4 | 19.3 | 0.00 | 0.00 | 0.00 | 54 | 1010.8 |
| 20260504004614 | 20 | 313 | 3.2 | 16.1 | 0.00 | 0.00 | 0.00 | 54 | 1010.7 |
| 20260504003116 | 20 | 4 | 0.0 | 16.1 | 0.00 | 0.00 | 0.00 | 55 | 1010.7 |
| 20260504001614 | 20 | 307 | 1.6 | 16.1 | 0.00 | 0.00 | 0.00 | 53 | 1010.6 |
| 20260504000016 | 20 | 338 | 1.6 | 12.9 | 0.00 | 0.00 | 0.00 | 53 | 1010.7 |
| 20260503234531 | 20 | 288 | 1.6 | 12.9 | 0.00 | 0.00 | 0.00 | 53 | 1010.8 |
| 20260503233035 | 20 | 307 | 1.6 | 11.3 | 0.00 | 0.00 | 0.00 | 53 | 1010.9 |
| 20260503231529 | 20 | 245 | 1.6 | 9.7 | 0.00 | 0.00 | 0.00 | 54 | 1011.0 |
| 20260503230029 | 20 | 335 | 0.0 | 9.7 | 0.00 | 0.00 | 0.00 | 55 | 1010.8 |
| 20260503224543 | 20 | 328 | 1.6 | 11.3 | 0.00 | 0.00 | 0.00 | 57 | 1010.7 |